EW1440 Weather Reports


Display with metric or nautical units.
time (UTC)temp
F
wind
direction
speed
MPH
gust
MPH
rain 1hr
in
rain 24hr
in
rain mn
in
humidity
%
barometer
mb
20260903030533 81 158 2.0 5.0 0.00 0.00 0.00 55 1012.3
20260903030126 81 175 2.0 4.0 0.00 0.00 0.00 55 1012.2
20260903025534 82 175 1.0 2.0 0.00 0.00 0.00 54 1012.3
20260903025032 82 175 1.0 2.0 0.00 0.00 0.00 54 1012.2
20260903024555 82 175 0.0 2.0 0.00 0.00 0.00 53 1012.0
20260903024034 83 0 0.0 2.0 0.00 0.00 0.00 52 1012.2
20260903023539 83 175 1.0 2.0 0.00 0.00 0.00 52 1012.0
20260903023054 84 175 0.0 2.0 0.00 0.00 0.00 52 1012.0
20260903022534 84 175 0.0 2.0 0.00 0.00 0.00 51 1011.9
20260903022036 85 175 1.0 2.0 0.00 0.00 0.00 50 1011.8
20260903021600 85 175 0.0 1.0 0.00 0.00 0.00 49 1011.7
20260903021035 86 175 0.0 2.0 0.00 0.00 0.00 49 1011.7
20260903020533 87 0 0.0 2.0 0.00 0.00 0.00 48 1011.7
20260903020105 87 175 0.0 2.0 0.00 0.00 0.00 47 1011.7
20260903015534 88 175 1.0 2.0 0.00 0.00 0.00 47 1011.7
20260903015034 88 175 0.0 2.0 0.00 0.00 0.00 46 1011.6
20260903014604 89 175 0.0 2.0 0.00 0.00 0.00 46 1011.5
20260903014035 89 0 0.0 3.0 0.00 0.00 0.00 45 1011.5
20260903013533 90 0 0.0 3.0 0.00 0.00 0.00 45 1011.5
20260903013057 91 175 1.0 3.0 0.00 0.00 0.00 45 1011.4
20260903012533 91 152 1.0 3.0 0.00 0.00 0.00 44 1011.4
20260903012033 92 152 2.0 3.0 0.00 0.00 0.00 44 1011.3
20260903011604 92 152 2.0 3.0 0.00 0.00 0.00 43 1011.3
20260903011033 93 152 1.0 3.0 0.00 0.00 0.00 42 1011.2
20260903010532 93 152 1.0 4.0 0.00 0.00 0.00 41 1011.3
20260903010057 94 152 1.0 5.0 0.00 0.00 0.00 39 1011.2
20260903005535 94 170 2.0 5.0 0.00 0.00 0.00 39 1011.2
20260903005037 95 166 2.0 5.0 0.00 0.00 0.00 39 1011.3
20260903004604 95 160 2.0 5.0 0.00 0.00 0.00 38 1011.3
20260903004033 95 158 2.0 5.0 0.00 0.00 0.00 38 1011.3
20260903003533 96 159 2.0 6.0 0.00 0.00 0.00 38 1011.3
20260903003049 96 138 2.0 8.0 0.00 0.00 0.00 37 1011.3
20260903002534 96 139 3.0 8.0 0.00 0.00 0.00 37 1011.3
20260903002033 96 129 4.0 8.0 0.00 0.00 0.00 37 1011.3
20260903001609 96 138 4.0 10.0 0.00 0.00 0.00 36 1011.4
20260903001032 96 157 3.0 10.0 0.00 0.00 0.00 36 1011.3
20260903000533 97 119 4.0 8.0 0.00 0.00 0.00 35 1011.3
20260903000104 97 166 3.0 11.0 0.00 0.00 0.00 35 1011.4
20260902235534 97 87 4.0 11.0 0.00 0.00 0.00 35 1011.3
20260902235036 98 130 2.0 8.0 0.00 0.00 0.00 34 1011.3
20260902234553 98 183 3.0 8.0 0.00 0.00 0.00 33 1011.4
20260902234034 98 162 4.0 9.0 0.00 0.00 0.00 34 1011.4
20260902233534 98 168 4.0 10.0 0.00 0.00 0.00 34 1011.5
20260902233103 99 154 5.0 12.0 0.00 0.00 0.00 32 1011.5
20260902232534 99 131 4.0 12.0 0.00 0.00 0.00 34 1011.5
20260902232033 99 94 4.0 11.0 0.00 0.00 0.00 33 1011.6
20260902231600 99 175 6.0 11.0 0.00 0.00 0.00 33 1011.6
20260902231033 99 168 5.0 11.0 0.00 0.00 0.00 33 1011.5
20260902230534 99 199 5.0 10.0 0.00 0.00 0.00 33 1011.5
20260902230057 99 89 4.0 9.0 0.00 0.00 0.00 35 1011.7
20260902225537 98 89 3.0 8.0 0.00 0.00 0.00 33 1011.7
20260902225037 99 116 1.0 12.0 0.00 0.00 0.00 35 1011.7
20260902224554 101 74 6.0 12.0 0.00 0.00 0.00 32 1011.7
20260902224034 102 112 5.0 12.0 0.00 0.00 0.00 31 1011.8
20260902223534 102 133 4.0 11.0 0.00 0.00 0.00 31 1011.8
20260902223051 103 133 5.0 15.0 0.00 0.00 0.00 31 1011.7
20260902222534 103 216 4.0 15.0 0.00 0.00 0.00 30 1011.7
20260902222036 103 125 6.0 13.0 0.00 0.00 0.00 31 1011.7
20260902221613 103 130 5.0 12.0 0.00 0.00 0.00 32 1011.8
20260902221034 103 102 6.0 11.0 0.00 0.00 0.00 31 1011.8
20260902220533 103 112 4.0 15.0 0.00 0.00 0.00 30 1011.8
20260902215534 103 135 6.0 16.0 0.00 0.00 0.00 31 1011.9
20260902215034 105 116 9.0 16.0 0.00 0.00 0.00 30 1011.9
20260902214553 105 108 3.0 15.0 0.00 0.00 0.00 32 1011.9
20260902214035 105 81 8.0 15.0 0.00 0.00 0.00 30 1011.9
20260902213533 105 115 5.0 15.0 0.00 0.00 0.00 30 1012.0
20260902213055 105 155 7.0 15.0 0.00 0.00 0.00 30 1012.0
20260902212533 105 72 4.0 12.0 0.00 0.00 0.00 31 1011.9
20260902212033 105 54 3.0 12.0 0.00 0.00 0.00 31 1012.0
20260902211600 105 89 6.0 12.0 0.00 0.00 0.00 32 1012.1
20260902211032 105 128 6.0 12.0 0.00 0.00 0.00 33 1012.2
20260902210534 104 154 5.0 11.0 0.00 0.00 0.00 32 1012.2
20260902210056 104 83 3.0 8.0 0.00 0.00 0.00 34 1012.3
20260902205532 103 164 4.0 12.0 0.00 0.00 0.00 33 1012.4
20260902205033 102 54 3.0 12.0 0.00 0.00 0.00 34 1012.4
20260902204611 101 135 6.0 12.0 0.00 0.00 0.00 35 1012.6
20260902204034 100 202 6.0 11.0 0.00 0.00 0.00 35 1012.7
20260902203535 99 104 1.0 9.0 0.00 0.00 0.00 37 1012.7
20260902203055 100 98 3.0 10.0 0.00 0.00 0.00 35 1012.8
20260902202533 99 5 1.0 10.0 0.00 0.00 0.00 37 1012.9
20260902202033 99 130 6.0 10.0 0.00 0.00 0.00 37 1013.0
20260902201557 97 101 5.0 10.0 0.00 0.00 0.00 39 1013.1
20260902201034 97 96 3.0 8.0 0.00 0.00 0.00 38 1013.2
20260902200535 98 94 3.0 9.0 0.00 0.00 0.00 40 1013.2
20260902200054 97 190 4.0 12.0 0.00 0.00 0.00 39 1013.5
20260902195536 99 122 4.0 13.0 0.00 0.00 0.00 36 1013.5
20260902195033 102 202 7.0 13.0 0.00 0.00 0.00 35 1013.6
20260902194559 101 74 2.0 11.0 0.00 0.00 0.00 36 1013.6
20260902194033 100 70 3.0 16.0 0.00 0.00 0.00 36 1013.7
20260902193533 99 105 7.0 16.0 0.00 0.00 0.00 37 1013.8
20260902193102 98 86 8.0 14.0 0.00 0.00 0.00 39 1013.8
20260902192532 99 135 6.0 14.0 0.00 0.00 0.00 39 1013.9
20260902192033 98 103 7.0 12.0 0.00 0.00 0.00 41 1014.0
20260902191604 97 96 5.0 12.0 0.00 0.00 0.00 42 1014.1
20260902191034 96 216 5.0 12.0 0.00 0.00 0.00 44 1014.1
20260902190532 95 206 4.0 8.0 0.00 0.00 0.00 44 1014.1
20260902185533 99 251 1.0 11.0 0.00 0.00 0.00 40 1014.4
20260902185035 100 110 5.0 24.0 0.00 0.00 0.00 39 1014.6
20260902184555 99 166 6.0 24.0 0.00 0.00 0.00 41 1014.6
20260902184034 99 50 3.0 11.0 0.00 0.00 0.00 41 1014.6
20260902183533 98 147 2.0 11.0 0.00 0.00 0.00 42 1014.7
20260902183139 96 199 6.0 11.0 0.00 0.00 0.00 43 1014.9
20260902182533 94 195 4.0 9.0 0.00 0.00 0.00 46 1015.0
20260902182035 94 234 4.0 11.0 0.00 0.00 0.00 44 1015.0
20260902181610 98 0 2.0 12.0 0.00 0.00 0.00 41 1015.0
20260902181034 99 222 5.0 12.0 0.00 0.00 0.00 40 1015.2
20260902180532 99 206 8.0 12.0 0.00 0.00 0.00 41 1015.3
20260902180105 98 224 5.0 10.0 0.00 0.00 0.00 44 1015.4
20260902175533 98 289 5.0 10.0 0.00 0.00 0.00 43 1015.4
20260902175032 98 243 3.0 10.0 0.00 0.00 0.00 44 1015.5
20260902174555 98 153 4.0 11.0 0.00 0.00 0.00 47 1015.6
20260902174036 98 249 5.0 11.0 0.00 0.00 0.00 45 1015.7
20260902173532 97 222 6.0 11.0 0.00 0.00 0.00 45 1015.9
20260902173106 97 226 4.0 11.0 0.00 0.00 0.00 47 1016.0
20260902172533 97 240 4.0 10.0 0.00 0.00 0.00 47 1016.0
20260902172034 97 177 4.0 10.0 0.00 0.00 0.00 48 1016.0
20260902171626 96 289 4.0 10.0 0.00 0.00 0.00 49 1016.0
20260902171034 96 264 3.0 10.0 0.00 0.00 0.00 49 1016.0
20260902170534 95 0 3.0 10.0 0.00 0.00 0.00 50 1016.1
20260902170058 95 228 5.0 11.0 0.00 0.00 0.00 49 1016.3
20260902165534 95 226 3.0 11.0 0.00 0.00 0.00 51 1016.2
20260902165034 94 170 4.0 10.0 0.00 0.00 0.00 52 1016.3
20260902164627 94 182 3.0 10.0 0.00 0.00 0.00 53 1016.3
20260902164035 93 240 5.0 10.0 0.00 0.00 0.00 54 1016.3
20260902163534 92 110 4.0 10.0 0.00 0.00 0.00 57 1016.3
20260902163102 91 253 3.0 10.0 0.00 0.00 0.00 58 1016.3
20260902162534 91 156 4.0 9.0 0.00 0.00 0.00 60 1016.4
20260902162034 90 264 1.0 8.0 0.00 0.00 0.00 60 1016.4
20260902161600 89 197 2.0 11.0 0.00 0.00 0.00 61 1016.4
20260902161033 89 268 5.0 11.0 0.00 0.00 0.00 62 1016.5
20260902160534 89 193 5.0 11.0 0.00 0.00 0.00 63 1016.4
20260902160058 89 195 5.0 11.0 0.00 0.00 0.00 63 1016.4
20260902155533 88 155 3.0 11.0 0.00 0.00 0.00 66 1016.4
20260902155035 88 239 7.0 11.0 0.00 0.00 0.00 65 1016.5
20260902154559 87 224 2.0 9.0 0.00 0.00 0.00 66 1016.6
20260902154038 87 226 5.0 9.0 0.00 0.00 0.00 66 1016.6
20260902153534 87 261 2.0 9.0 0.00 0.00 0.00 68 1016.5
20260902153058 86 0 4.0 9.0 0.00 0.00 0.00 69 1016.5
20260902152533 86 77 1.0 9.0 0.00 0.00 0.00 72 1016.6
20260902152036 86 280 4.0 9.0 0.00 0.00 0.00 70 1016.6
20260902151600 85 182 3.0 9.0 0.00 0.00 0.00 72 1016.7
20260902151034 85 203 2.0 9.0 0.00 0.00 0.00 74 1016.5
20260902150532 84 220 4.0 9.0 0.00 0.00 0.00 74 1016.6
20260902150056 84 175 4.0 8.0 0.00 0.00 0.00 75 1016.5
20260902145535 83 186 4.0 8.0 0.00 0.00 0.00 76 1016.6
20260902145033 83 213 3.0 10.0 0.00 0.00 0.00 77 1016.7
20260902144603 83 184 3.0 11.0 0.00 0.00 0.00 77 1016.7
20260902144033 83 198 6.0 11.0 0.00 0.00 0.00 77 1016.8
20260902143534 82 199 6.0 11.0 0.00 0.00 0.00 79 1016.8
20260902143102 81 247 3.0 7.0 0.00 0.00 0.00 81 1016.7
20260902142534 81 243 2.0 7.0 0.00 0.00 0.00 82 1016.7
20260902142034 80 156 0.0 5.0 0.00 0.00 0.00 86 1016.6
20260902141557 79 106 2.0 5.0 0.00 0.00 0.00 90 1016.6
20260902141033 77 168 1.0 4.0 0.00 0.00 0.00 92 1016.6
20260902140533 77 98 2.0 6.0 0.00 0.00 0.00 92 1016.6
20260902140057 76 114 1.0 6.0 0.00 0.00 0.00 92 1016.6
20260902135534 76 81 2.0 6.0 0.00 0.00 0.00 92 1016.6
20260902135033 76 60 2.0 6.0 0.00 0.00 0.00 92 1016.5
20260902134552 75 95 2.0 6.0 0.00 0.00 0.00 92 1016.6
20260902134037 75 140 2.0 6.0 0.00 0.00 0.00 92 1016.5
20260902133535 74 81 3.0 5.0 0.00 0.00 0.00 92 1016.6
20260902133057 74 112 1.0 4.0 0.00 0.00 0.00 92 1016.5
20260902132536 73 162 1.0 3.0 0.00 0.00 0.00 92 1016.4
20260902132034 72 0 0.0 2.0 0.00 0.00 0.00 91 1016.4
20260902131612 72 162 0.0 2.0 0.00 0.00 0.00 91 1016.5
20260902131035 72 0 0.0 1.0 0.00 0.00 0.00 91 1016.4
20260902130534 71 0 0.0 1.0 0.00 0.00 0.00 90 1016.3
20260902125532 70 0 0.0 0.0 0.00 0.00 0.00 89 1016.2
20260902125034 70 0 0.0 0.0 0.00 0.00 0.00 89 1016.2
20260902124552 70 0 0.0 0.0 0.00 0.00 0.00 88 1016.1
20260902124033 70 0 0.0 0.0 0.00 0.00 0.00 88 1016.0
20260902123535 70 0 0.0 0.0 0.00 0.00 0.00 88 1016.1
20260902123058 70 0 0.0 1.0 0.00 0.00 0.00 88 1016.0
20260902122535 70 0 0.0 1.0 0.00 0.00 0.00 88 1016.0
20260902122035 70 0 0.0 0.0 0.00 0.00 0.00 87 1015.9
20260902121555 70 0 0.0 0.0 0.00 0.00 0.00 87 1015.9
20260902121034 70 0 0.0 0.0 0.00 0.00 0.00 87 1015.9
20260902120536 70 0 0.0 1.0 0.00 0.00 0.00 87 1015.9
20260902120059 70 0 0.0 2.0 0.00 0.00 0.00 87 1015.9
20260902115537 70 162 0.0 3.0 0.00 0.00 0.00 87 1015.9
20260902115032 70 162 1.0 3.0 0.00 0.00 0.00 87 1015.8
20260902114619 70 162 0.0 2.0 0.00 0.00 0.00 87 1015.9
20260902114036 70 0 0.0 2.0 0.00 0.00 0.00 87 1015.9
20260902113534 70 0 0.0 0.0 0.00 0.00 0.00 86 1015.8
20260902113058 70 0 0.0 0.0 0.00 0.00 0.00 86 1015.9
20260902112534 70 0 0.0 0.0 0.00 0.00 0.00 86 1015.8
20260902112036 70 0 0.0 0.0 0.00 0.00 0.00 86 1015.8
20260902111555 70 0 0.0 0.0 0.00 0.00 0.00 86 1015.8
20260902111033 70 0 0.0 0.0 0.00 0.00 0.00 85 1015.8
20260902110534 71 0 0.0 0.0 0.00 0.00 0.00 85 1015.8
20260902110105 71 0 0.0 0.0 0.00 0.00 0.00 85 1015.8
20260902105534 71 0 0.0 0.0 0.00 0.00 0.00 85 1015.8
20260902105034 71 0 0.0 0.0 0.00 0.00 0.00 84 1015.9
20260902104602 71 0 0.0 0.0 0.00 0.00 0.00 84 1015.8
20260902104034 71 0 0.0 0.0 0.00 0.00 0.00 84 1015.7
20260902103533 71 0 0.0 0.0 0.00 0.00 0.00 84 1015.8
20260902103106 71 0 0.0 0.0 0.00 0.00 0.00 84 1015.7
20260902102534 71 0 0.0 0.0 0.00 0.00 0.00 83 1015.7
20260902102034 71 0 0.0 0.0 0.00 0.00 0.00 83 1015.7
20260902101554 71 0 0.0 0.0 0.00 0.00 0.00 83 1015.7
20260902101032 71 0 0.0 0.0 0.00 0.00 0.00 82 1015.6
20260902100537 71 0 0.0 0.0 0.00 0.00 0.00 82 1015.8
20260902100056 71 0 0.0 0.0 0.00 0.00 0.00 82 1015.8
20260902095534 71 0 0.0 0.0 0.00 0.00 0.00 82 1015.7
20260902095033 72 0 0.0 0.0 0.00 0.00 0.00 81 1015.8
20260902094550 72 0 0.0 0.0 0.00 0.00 0.00 81 1015.8
20260902094034 72 0 0.0 0.0 0.00 0.00 0.00 81 1015.9
20260902093532 72 0 0.0 0.0 0.00 0.00 0.00 81 1015.8
20260902093057 72 0 0.0 0.0 0.00 0.00 0.00 80 1015.8
20260902092532 72 0 0.0 0.0 0.00 0.00 0.00 80 1015.8
20260902092033 72 0 0.0 0.0 0.00 0.00 0.00 80 1015.8
20260902091600 72 0 0.0 0.0 0.00 0.00 0.00 79 1015.8
20260902091032 72 0 0.0 0.0 0.00 0.00 0.00 79 1015.8
20260902090533 72 0 0.0 0.0 0.00 0.00 0.00 79 1015.7
20260902090058 73 0 0.0 0.0 0.00 0.00 0.00 79 1015.8
20260902085532 73 0 0.0 0.0 0.00 0.00 0.00 79 1015.8
20260902085032 73 0 0.0 0.0 0.00 0.00 0.00 78 1015.9
20260902084600 73 0 0.0 0.0 0.00 0.00 0.00 78 1015.8
20260902084033 73 0 0.0 1.0 0.00 0.00 0.00 78 1015.9
20260902083532 73 0 0.0 1.0 0.00 0.00 0.00 77 1015.8
20260902083052 74 0 0.0 1.0 0.00 0.00 0.00 77 1015.8
20260902082536 74 0 0.0 1.0 0.00 0.00 0.00 76 1015.8
20260902082034 74 0 0.0 2.0 0.00 0.00 0.00 76 1015.8
20260902081552 74 0 0.0 2.0 0.00 0.00 0.00 76 1015.8
20260902081034 74 162 0.0 2.0 0.00 0.00 0.00 75 1015.8
20260902080535 75 0 0.0 0.0 0.00 0.00 0.00 74 1015.8
20260902080059 75 0 0.0 0.0 0.00 0.00 0.00 73 1015.9
20260902075532 75 0 0.0 0.0 0.00 0.00 0.00 73 1015.9
20260902075032 75 0 0.0 0.0 0.00 0.00 0.00 73 1016.0
20260902074559 76 0 0.0 0.0 0.00 0.00 0.00 72 1016.0
20260902074033 76 0 0.0 0.0 0.00 0.00 0.00 72 1015.9
20260902073532 76 0 0.0 0.0 0.00 0.00 0.00 72 1015.9
20260902073054 76 0 0.0 0.0 0.00 0.00 0.00 71 1015.9
20260902072532 77 0 0.0 1.0 0.00 0.00 0.00 71 1015.9
20260902072032 77 0 0.0 2.0 0.00 0.00 0.00 72 1015.9
20260902071557 77 0 0.0 3.0 0.00 0.00 0.00 72 1016.0
20260902071033 78 162 1.0 5.0 0.00 0.00 0.00 71 1015.9
20260902070533 78 0 1.0 5.0 0.00 0.00 0.00 69 1015.8
20260902070105 78 162 2.0 5.0 0.00 0.00 0.00 68 1015.8
20260902065532 79 151 1.0 4.0 0.00 0.00 0.00 67 1015.7
20260902065033 79 121 0.0 2.0 0.00 0.00 0.00 67 1015.7
20260902064559 79 0 0.0 2.0 0.00 0.00 0.00 67 1015.8
20260902064033 80 121 0.0 2.0 0.00 0.00 0.00 67 1015.8
20260902063536 80 0 0.0 1.0 0.00 0.00 0.00 66 1015.9
20260902063105 80 0 0.0 1.0 0.00 0.00 0.00 66 1015.8
20260902062535 80 0 0.0 1.0 0.00 0.00 0.00 65 1015.8
20260902062033 81 0 0.0 2.0 0.00 0.00 0.00 65 1015.6
20260902061557 81 0 0.0 4.0 0.00 0.00 0.00 65 1015.6
20260902061034 81 121 1.0 7.0 0.00 0.00 0.00 65 1015.7
20260902060532 81 117 2.0 8.0 0.00 0.00 0.00 65 1015.8
20260902060128 81 116 3.0 11.0 0.00 0.00 0.00 65 1015.7
20260902055532 81 122 5.0 11.0 0.00 0.00 0.00 64 1015.6
20260902055033 81 128 5.0 8.0 0.00 0.00 0.00 64 1015.5
20260902054559 81 127 4.0 11.0 0.00 0.00 0.00 64 1015.6
20260902054033 82 179 5.0 11.0 0.00 0.00 0.00 64 1015.6
20260902053535 82 159 4.0 9.0 0.00 0.00 0.00 64 1015.5
20260902053056 82 138 4.0 9.0 0.00 0.00 0.00 63 1015.5
20260902052533 82 137 5.0 9.0 0.00 0.00 0.00 64 1015.5
20260902052033 82 145 5.0 10.0 0.00 0.00 0.00 64 1015.5
20260902051601 82 142 5.0 12.0 0.00 0.00 0.00 64 1015.5
20260902051033 82 141 5.0 12.0 0.00 0.00 0.00 64 1015.5
20260902050533 82 140 5.0 11.0 0.00 0.00 0.00 64 1015.5
20260902045538 81 160 6.0 10.0 0.00 0.00 0.00 65 1015.4
20260902045032 81 145 4.0 9.0 0.00 0.00 0.00 66 1015.4
20260902044557 81 145 5.0 10.0 0.00 0.00 0.00 67 1015.4
20260902044035 81 128 4.0 10.0 0.00 0.00 0.00 68 1015.4
20260902043533 80 153 4.0 10.0 0.00 0.00 0.00 68 1015.3
20260902043057 80 126 4.0 10.0 0.00 0.00 0.00 69 1015.3
20260902042533 80 143 4.0 8.0 0.00 0.00 0.00 69 1015.3
20260902042032 79 147 4.0 8.0 0.00 0.00 0.00 69 1015.3
20260902041609 79 145 3.0 8.0 0.00 0.00 0.00 69 1015.3
20260902041032 78 120 3.0 7.0 0.00 0.00 0.00 68 1015.2
20260902040533 78 144 2.0 7.0 0.00 0.00 0.00 66 1015.2
20260902040100 78 108 3.0 6.0 0.00 0.00 0.00 65 1015.2
20260902035532 78 104 1.0 4.0 0.00 0.00 0.00 65 1015.0
20260902035033 78 113 1.0 4.0 0.00 0.00 0.00 64 1015.0
20260902034558 78 113 1.0 6.0 0.00 0.00 0.00 64 1015.0
20260902034034 78 103 2.0 8.0 0.00 0.00 0.00 63 1014.9
20260902033535 78 83 2.0 8.0 0.00 0.00 0.00 63 1014.8
20260902033058 78 65 4.0 8.0 0.00 0.00 0.00 62 1014.7
20260902032537 79 0 0.0 0.0 0.00 0.00 0.00 62 1014.4
20260902032034 79 0 0.0 0.0 0.00 0.00 0.00 61 1014.4
20260902031602 79 0 0.0 0.0 0.00 0.00 0.00 61 1014.4
20260902031033 79 0 0.0 0.0 0.00 0.00 0.00 60 1014.4